www.pogodaiklimat.ru

Погода и климат >> Архив погоды >> Австралия >> Западная Австралия >> Трускотт


ПОГОДА в Трускотте

  • Прогноз погоды в Трускотте
  • Монитор погоды в Трускотте

АРХИВ ПОГОДЫ в Трускотте

Время (UTC), дата Ветер
(напр.,м/с)
 
Видим.   Явления Облачность Т
(С)
Тd
(С)
f
(%)
Тe
(С)
Тes
(С)
Комфортность P
(гПа)
Po
(гПа)
Тmin
(С)
Tmax
(С)
R
(мм)
R24
(мм)
S
(см)
01 9.06 В 4 н/о н/о +29.1 +10.7 32 +29 +29 жарко 1014.3 1008.4 +19.1
04 9.06 В 5 н/о н/о +30.0 +12.4 34 +31 +31 жарко 1013.1 1007.2
07 9.06 С 5 н/о н/о +27.7 +19.2 60 +33 +33 очень
душно
1012.1 1006.2
10 9.06 СВ 3 н/о н/о +24.6 +20.7 79 +31 +31 очень
душно
1013.4 1007.5
13 9.06 штиль 0 н/о н/о +22.2 +21.0 93 +29 +29 очень
душно
1015.1 1009.1 +31.3
16 9.06 Ю 2 н/о н/о +22.2 +21.0 93 +29 +29 очень
душно
1013.8 1007.9
19 9.06 ЮВ 2 н/о н/о +19.6 +19.6 100 +23 +23 комфорт 1011.8 1005.9
22 9.06 Ю 2 н/о н/о +19.8 +19.1 96 +23 +23 комфорт 1012.2 1006.3
01 10.06 ЮВ 3 н/о н/о +28.9 +15.1 43 +31 +31 жарко 1012.8 1006.9 +19.4
04 10.06 В 4 н/о н/о +31.7 +12.5 31 +32 +32 жарко 1010.6 1004.7
07 10.06 С 5 н/о н/о +31.4 +15.0 37 +34 +34 душно 1008.7 1002.8
10 10.06 С 2 н/о н/о +25.8 +18.0 62 +30 +30 душно 1010.8 1004.9
13 10.06 штиль 0 н/о н/о +22.8 +14.9 61 +27 +27 душно 1012.8 1006.9 +33.3
16 10.06 ЮЗ 2 н/о н/о +23.5 +17.3 68 +27 +27 душно 1013.2 1007.3
19 10.06 ЮЗ 3 н/о н/о +23.0 +19.6 81 +30 +30 очень
душно
1012.5 1006.6
22 10.06 Ю 1 н/о н/о +20.9 +18.8 88 +26 +26 душно 1013.5 1007.6
01 11.06 ЮВ 2 н/о н/о +28.7 +17.2 50 +33 +33 очень
душно
1015.0 1009.0 +20.9
04 11.06 З 3 н/о н/о +31.2 +16.8 42 +35 +35 очень
душно
1013.1 1007.2
07 11.06 СЗ 3 н/о н/о +30.7 +17.0 44 +34 +34 очень
душно
1011.5 1005.6
10 11.06 С 2 н/о н/о +26.3 +18.7 63 +31 +31 душно 1013.4 1007.5
13 11.06 ЮЗ 1 н/о н/о +24.6 +19.0 71 +30 +30 очень
душно
1014.5 1008.5 +33.1
16 11.06 ЮЗ 2 н/о н/о +24.6 +20.7 79 +31 +31 очень
душно
1014.1 1008.2
19 11.06 Ю 3 н/о н/о +24.7 +17.9 66 +29 +29 душно 1013.1 1007.2
22 11.06 ЮЗ 5 н/о н/о +24.4 +17.9 67 +29 +29 душно 1013.8 1007.9
01 12.06 Ю 3 н/о н/о +29.5 +16.3 45 +33 +33 душно 1014.9 1008.9 +23.2
04 12.06 СВ 4 н/о н/о +32.7 +16.5 38 +36 +36 очень
душно
1012.8 1006.9
07 12.06 С 4 н/о н/о +30.6 +18.0 47 +35 +35 очень
душно
1011.1 1005.2
10 12.06 С 2 н/о н/о +26.3 +21.1 73 +33 +33 очень
душно
1012.4 1006.5
13 12.06 штиль 0 н/о н/о +24.3 +21.8 86 +31 +31 очень
душно
1013.7 1007.8 +33.6
16 12.06 ЮЗ 1 н/о н/о +24.1 +22.2 89 +31 +31 очень
душно
1013.2 1007.3
19 12.06 ЮЗ 2 н/о н/о +23.1 +20.4 85 +30 +30 очень
душно
1012.1 1006.2
22 12.06 ЮВ 2 н/о н/о +21.3 +19.4 89 +26 +26 душно 1013.2 1007.3
01 13.06 В 3 н/о н/о +29.6 +19.0 53 +35 +35 очень
душно
1014.6 1008.6 +21.2
04 13.06 С 5 н/о н/о +29.9 +19.3 53 +36 +36 очень
душно
1012.5 1006.6
07 13.06 С 4 н/о н/о +29.1 +19.4 56 +35 +35 очень
душно
1010.8 1004.9
10 13.06 СЗ 2 н/о н/о +25.1 +22.8 87 +33 +33 очень
душно
1012.1 1006.2
13 13.06 штиль 0 н/о н/о +24.1 +22.9 93 +32 +32 очень
душно
1013.9 1008.0 +32.0
16 13.06 ЮЗ 3 н/о н/о +24.1 +24.1 100 +33 +33 очень
душно
1013.4 1007.5
19 13.06 ЮЗ 3 н/о н/о +23.8 +23.5 98 +32 +32 очень
душно
1012.1 1006.2
22 13.06 штиль 0 н/о н/о +21.9 +21.9 100 +29 +29 очень
душно
1012.9 1007.0
01 14.06 СЗ 2 н/о н/о +28.2 +20.2 62 +35 +35 очень
душно
1014.5 1008.5 +21.9
04 14.06 СЗ 4 н/о 3/3 1000 м
[]
+30.8 +20.4 54 +38 +44 очень
душно
1011.6 1005.7
07 14.06 С 4 н/о н/о +28.6 +21.6 66 +37 +37 очень
душно
1009.5 1003.6
10 14.06 С 3 н/о н/о +25.9 +22.0 79 +33 +33 очень
душно
1011.5 1005.6
13 14.06 З 2 н/о н/о +24.6 +23.6 94 +33 +33 очень
душно
1013.2 1007.3 +31.3
16 14.06 З 2 н/о н/о +24.3 +22.6 90 +32 +32 очень
душно
1013.1 1007.2
19 14.06 ЮЗ 2 н/о н/о +23.6 +23.6 100 +32 +32 очень
душно
1012.2 1006.3
22 14.06 штиль 0 н/о 1/1 300 м
[]
+21.5 +21.5 100 +28 +28 очень
душно
1013.2 1007.3
01 15.06 ЮЗ 4 н/о 1/1 300 м
[]
+27.8 +22.5 73 +37 +41 очень
душно
1014.6 1008.6 +21.5
04 15.06 СЗ 4 н/о н/о +29.7 +20.3 57 +36 +36 очень
душно
1012.7 1006.8
07 15.06 С 4 н/о н/о +29.8 +19.2 53 +35 +35 очень
душно
1010.9 1005.0
10 15.06 СЗ 2 н/о н/о +26.3 +22.4 79 +34 +34 очень
душно
1012.2 1006.3
13 15.06 ЮЗ 2 н/о н/о +25.2 +23.1 88 +34 +34 очень
душно
1013.5 1007.6 +31.4
16 15.06 ЮЗ 2 н/о н/о +24.6 +24.1 97 +34 +34 очень
душно
1013.2 1007.3
19 15.06 ЮЗ 2 н/о н/о +23.8 +23.8 100 +32 +32 очень
душно
1012.4 1006.5
22 15.06 штиль 0 н/о н/о +21.7 +21.7 100 +28 +28 душно 1012.9 1007.0

 

Местоположение метеостанции Трускотт (Западная Австралия, Австралия): широта -14.08 долгота 126.38 высота над уровнем моря 52 м.

В архиве по умолчанию представлена погода в Трускотте за последнюю неделю. Архивные данные за месяц целиком и за предыдущие месяцы, начиная с января 2011 года, Вы можете получить, выбрав интересующий диапазон дат из раскрывающегося списка и нажав кнопку "Ввод!".


*Определитесь, кто Вы:
робот инопланетянин человек

Внимание! Время в таблицах - всемирное. Для получения местного времени необходимо прибавить поправку, которая равна 8 ч.

Смотрите также архив погоды в соседних городах и на ближайших метеорологических станциях:

Погода в Калумбуру (Западная Австралия, Австралия) (38 км)
Погода на Острове Троутон (Западная Австралия, Австралия) (44 км)
Погода в Уиндеме (Западная Австралия, Австралия) (247 км)
Погода на Острове Брауз (Западная Австралия, Австралия) (305 км)
Погода в Кунунарре (Западная Австралия, Австралия) (314 км)
Погода в Порт Китс (Северная территория, Австралия) (340 км)
Погода в Аэропорту Аргайл (Западная Австралия, Австралия) (360 км)
Погода на Острове Адель (Западная Австралия, Австралия) (382 км)
Погода на Острове Дам-ин-Мирре (Северная территория, Австралия) (461 км)
Погода в Фицрой-Кроссинге (Западная Австралия, Австралия) (464 км)

Пояснения к столбцам:

Ветер - указаны скорость ветра в м/с - средняя за 10 мин, порывы в срок и между сроками (в фигурных скобках) и направление, откуда дует ветер: С - северный, СВ - северо-восточный, В - восточный, ЮВ - юго-восточный, Ю - южный, ЮЗ - юго-западный, З - западный, СЗ - северо-западный.
Видимость - горизонтальная дальность видимости в метрах или километрах. При видимости от 1 до 10 км при отсутствии осадков обычно наблюдается дымка, при ухудшении видимости до 1 км и менее - туман. В сухую погоду видимость может ухудшаться дымом, пылью или мглою.
Явления - указаны атмосферные явления, наблюдавшиеся в срок или в последний час перед сроком; фигурными скобками обозначены явления, наблюдавшиеся между сроками (за 1-3 часа до срока); квадратными скобками обозначены град или гололедные отложения с указанием их диаметра в мм.
Облачность - указаны через наклонную черту общая и нижняя облачность в баллах и высота нижней границы облаков в метрах; квадратными скобками обозначены формы облаков: Ci - перистые, Cs - перисто-слоистые, Cc - перисто-кучевые, Ac - высококучевые, As - высокослоистые, Sc - слоисто-кучевые, Ns - слоисто-дождевые, Cu - кучевые, Cb - кучево-дождевые. Подробнее классификацию облаков см. в Атласе облаков (PDF).
T - Температура воздуха - температура, измеренная на высоте 2 м над землей.
Td - Температура точки росы - температура, при понижении до которой содержащийся в воздухе водяной пар достигнет насыщения.
f - Относительная влажность воздуха - влажноcть воздуха, измеренная на высоте 2 м над землей.
Te - Эффективная температура - температура, которую ощущает одетый по сезону человек в тени. Характеристика душности погоды. При расчете учитывается влияние влажности воздуха и скорости ветра на теплоощущения человека.
Tes - Эффективная температура на солнце - температура, которую ощущает человек, с поправкой на солнечный нагрев. Характеристика знойности погоды. Зависит от высоты солнца над горизонтом, облачности и скорости ветра. Ночью, в пасмурную погоду, а также при ветре 12 м/с и более поправка равна нулю.
P - Атмосферное давление - приведенное к уровню моря атмосферное давление.
Po - Атмосферное давление - измеренное на уровне метеостанции атмосферное давление.
Tmin - Минимальная температура - минимум температуры воздуха на высоте 2 м над землей.
Tmax - Максимальная температура - максимум температуры воздуха на высоте 2 м над землей.
R - Количество осадков - Количество выпавших осадков за период времени, мм. При наведении курсора мыши на число - период времени, за который выпало указанное количество осадков.
R24 - Количество осадков - Количество выпавших осадков за 24 часа, мм.
S - Снежный покров - Высота снежного покрова, см. При наведении курсора мыши на число - состояние снежного покрова и степень покрытия местности в баллах.